Погода в Ханое

Вьетнам     21°01′45″N   105°51′08″E
темп.,
°C
ветер,
м/с
пор.,
м/с
влажн.,
%
обл.,
%
осадки,
мм/ч
давл.,
гПа
погр.,
м
24 октября, вс
вс2401:00+18ссв247010 0.0 1021133
04:00+17с357379 0.0 1020142
07:00+18ссз2572100 0.0 1021273
10:00+21с4759100 0.0 1022676
13:00+22ссв465289 0.0 1019864
16:00+22ссв3459100 0.0 1017518
19:00+21ссв126690 0.0 101996
22:00+20ссв126928 0.0 102082
25 октября, пн
пн2501:00+19св227429 0.0 101968
04:00+18с23775 0.0 101868
07:00+19ссз23755 0.0 1019143
10:00+24ссв34525 0.0 10191037
13:00+27св22465 0.0 10151417
16:00+27в22485 0.0 10141413
19:00+23юв23635 0.0 1015127
22:00+21ююв36745 0.0 1016180
26 октября, вт
вт2601:00+21ююв23765 0.0 101689
04:00+20вюв118093 0.0 101541
07:00+21всв11786 0.0 1017121
10:00+26св22595 0.0 1018944
13:00+27в225499 0.0 10141429
16:00+27вюв225794 0.0 10131122
19:00+25юв236690 0.0 1015189
22:00+23ююв23766 0.0 101787
27 октября, ср
ср2701:00+22ююв118110 0.0 101646
04:00+22ссз11815 0.0 101626
07:00+23с2379100 0.0 1017158
10:00+25ссв3566100 0.0 1018595
13:00+26всв235885 0.0 1015769
16:00+27юв225566 0.0 10141006
19:00+25ююв2267100 0.0 1015129
22:00+24ю2270100 0.0 101789
28 октября, чт
чт2801:00+24вюв0174100 0.0 101658
04:00+23с2579100 0.1 1015200
07:00+23с257699 0.1 1017323
10:00+23ссв1374100 0.0 1018282
13:00+24ссв1373100 0.0 1016348
16:00+23ссв0175100 0.0 101588
19:00+23з007589 0.0 101733
22:00+23сз117578 0.0 101840